Regional Weather Roundup
Issued by NWS Grand Forks, ND

Home | Current Version | Previous Version | Graphics & Text | Print | Product List | Glossary On
Versions: 1 2 3 4 5 6 7 8 9 10 11 12 13 14 15 16 17 18 19 20 21 22 23 24 25 26 27 28 29 30 31 32 33 34 35 36 37 38 39 40 41 42 43 44 45 46 47 48 49 50
000
ASUS43 KFGF 181631
RWRFGF
PRAIRIE TO PINES  WEATHER ROUNDUP
NATIONAL WEATHER SERVICE EASTERN NORTH DAKOTA/GRAND FORKS ND
1100 AM CDT THU SEP 18 2014

 **SATELLITE DATA USED TO AUGMENT SKY COVER AT AUTOMATED STATIONS**
 *****  WEATHER ACROSS EASTERN NORTH DAKOTA  *****

CITY           SKY/WX    TMP DP  RH WIND       PRES   REMARKS
GRAND FORKS    CLOUDY    52  51  97 S15       29.97S FOG
GRAND FRKS AFB NOT AVBL
GRAND FRKS NWS   N/A     54 N/A N/A S10         N/A
DEVILS LAKE    SUNNY     63  48  59 SE14      29.88F
FARGO          CLOUDY    57  52  83 SE16      29.98F
WAHPETON ARPT  CLOUDY    54  48  82 SE14G20   30.01F
$$

 ***** WEATHER ACROSS CENTRAL AND WESTERN NORTH DAKOTA  *****

CITY           SKY/WX    TMP DP  RH WIND       PRES   REMARKS
BISMARCK       SUNNY     68  55  63 SE15      29.85F
MINOT          SUNNY     66  52  60 SE15G24   29.79F
JAMESTOWN      SUNNY     62  53  72 SE13      29.92F
MINOT AFB      NOT AVBL
GARRISON         N/A     65  54  67 S13G21    29.81F
WILLISTON      SUNNY     66  52  60 S9        29.71F
DICKINSON      SUNNY     66  54  65 S18       29.78F
HETTINGER      SUNNY     64  54  69 S12       29.84F
$$

 *****  OTHER AIRPORT OBSERVATIONS IN OUR AREA  *****

CITY           SKY/WX    TMP DP  RH WIND       PRES   REMARKS
WALHALLA         N/A     52  50  93 SE17      29.93F
GRAFTON AIRPOR CLOUDY    50  50 100 S13       29.96F
VALLEY CITY AR FAIR      57  57 100 SE12      29.95F
CANDO          FAIR      64  52  63 SE15      29.87F
CAVALIER APRT  PTSUNNY   50  46  87 SE9       29.95F
GWINNER        MOSUNNY   61  55  82 SE14      29.97F
ROLLA          FAIR      63  50  63 S17       29.87F
 ***** THE ABOVE OBSERVATIONS ARE NON NWS ARE NOT QUALITY
       CONTROLLED AND MAY MIS-REPORT RAIN FOR SNOW...
$$

  *****  WEATHER ACROSS NORTHERN MINNESOTA  *****

CITY           SKY/WX    TMP DP  RH WIND       PRES   REMARKS
FLAG ISLAND    CLOUDY    46  45  93 SE15      30.02F
WARROAD        CLOUDY    48  45  87 SE10      30.03F
ROSEAU         CLOUDY    50  45  81 SE9       30.01F
HALLOCK        CLOUDY    55  52  88 SE13      29.97S
THF RVR FALLS  MOSUNNY   55  50  82 SE12      30.00F
BAUDETTE       CLOUDY    45  44  97 VRB7      30.06S
WASKISH        CLOUDY    48  46  93 SE7       30.06S
CROOKSTON      MOSUNNY   55  52  88 SE10      29.99F
STEPHEN NDAWN    N/A     54  52  94 S12         N/A
GREENBUSH NDAW   N/A     50  48  93 SE12        N/A
$$
  *****  WEATHER ACROSS CENTRAL AND WEST MINNESOTA  *****

CITY           SKY/WX    TMP DP  RH WIND       PRES   REMARKS
FOSSTON        SUNNY     59  52  77 SE8       30.01F
BEMIDJI        SUNNY     53  43  69 S10       30.05F
PARK RAPIDS    MOSUNNY   50  43  77 SE7       30.06F
ELBOW LAKE     PTSUNNY   55  50  83 SE10      30.03F
WADENA         MOSUNNY   52  46  82 SE12      30.05F
DETROIT LAKES  CLOUDY    52  48  87 SE12      30.03F
MOORHEAD       SUNNY     61  55  82 S16       30.00S
FERGUS FALLS   MOSUNNY   55  48  76 SE10      30.02F
MORRIS MN      CLOUDY    54  52  94 SE13      30.03S FOG
STAPLES        CLOUDY    46  45  93 SE6       30.08S
$$
  *****  WEATHER ELSEWHERE ACROSS MINNESOTA  *****

CITY           SKY/WX    TMP DP  RH WIND       PRES   REMARKS
DULUTH         PTSUNNY   47  39  74 E13       30.15S
INTRNTL FALLS  CLOUDY    47  42  83 VRB7      30.09S
ELY            CLOUDY    45  36  70 SE9       30.14S
CLOQUET        CLOUDY    46  39  76 E9        30.14S
WHEATON        CLOUDY    52  50  93 SE14G20   30.03F
BRAINERD       CLOUDY    47  44  90 SE10      30.11S
HIBBING        CLOUDY    50  39  66 SE9       30.13S
ALEXANDRIA     CLOUDY    49  48  97 SE12      30.07S FOG
SAINT CLOUD    CLOUDY    53  48  83 E7        30.10S
MINNEAPOLIS    PTSUNNY   57  51  80 E9        30.10S
$$

  *****  WEATHER ACROSS SOUTH DAKOTA  *****

CITY           SKY/WX    TMP DP  RH WIND       PRES   REMARKS
SIOUX FALLS    PTSUNNY   71  58  63 SE13G22   30.02S
BROOKINGS      NOT AVBL
WATERTOWN      SUNNY     68  59  73 S21       29.99S
HURON          LGT RAIN  64  59  83 SE8       29.95F
SISSETON         N/A     53  53 100 S10       29.99F
ABERDEEN       SUNNY     67  58  72 S10       29.94F
MITCHELL       MOSUNNY   70  63  78 S13       29.98S
PIERRE         SUNNY     71  61  70 S20       29.87S
MOBRIDGE       SUNNY     72  59  63 SE13      29.84F
RAPID CITY     SUNNY     67  55  65 SE3       29.86S
$$

  *****  SOME WEATHER IN NEARBY STATES *****

CITY           SKY/WX    TMP DP  RH WIND       PRES   REMARKS
GLASGOW MT     MOSUNNY   66  53  63 E6        29.65F
GREAT FALLS MT CLOUDY    71  42  35 S17       29.74R
CHEYENNE WY    SUNNY     78  39  24 VRB5      30.10S
SCOTTSBLUFF NE MOSUNNY   62  56  80 SE5       29.97F
OMAHA NE       MOSUNNY   68  58  70 SE8       30.04S
DES MOINES IA  MOSUNNY   62  56  80 E8        30.09F
DAVENPORT IA   SUNNY     67  53  61 VRB3      30.13F
CHICAGO IL     PTSUNNY   67  55  65 NE9       30.15S
EAU CLAIRE WI  CLOUDY    51  48  89 S8        30.15S
LA CROSSE WI   CLOUDY    59  51  75 SE6       30.15F
$$

  *****  SOME NATIONAL WEATHER *****

CITY           SKY/WX    TMP DP  RH WIND       PRES   REMARKS
LA GUARDIA NY  MOSUNNY   72  47  40 NW3       30.00F
RALEIGH NC     MOSUNNY   76  60  57 CALM      30.02F
ATLANTA GA     PTSUNNY   78  62  57 E5        30.02S
NEW ORLEANS LA CLOUDY    85  81  88 E7        29.94F HX 100
OKLAHOMA CITY  PTSUNNY   70  61  73 SE18G26   29.99F
ALBUQUERQUE NM MOSUNNY   65  52  62 NW5       30.10S
SALT LAKE CITY MOSUNNY   80  44  27 SE15      29.92S
LOS ANGELES CA MOSUNNY   69  62  78 SW6       29.88R
BOISE ID       CLOUDY    74  42  31 CALM      29.82R
SEATTLE WA     CLOUDY    61  58  90 S5        29.81R
$$

*** WEATHER ACROSS MANITOBA...SASKATCHEWAN AND ONTARIO ***
                ***ONTARIO***

CITY           SKY/WX    TMP DP  RH WIND       PRES   REMARKS
GERALDTON      PTSUNNY   45  30  57 SW6       30.20F
THUNDER BAY    PTSUNNY   45  36  70 CALM      30.22F
SIOUX LOOKOUT  CLOUDY    45  36  70 S9        30.11F
TORONTO        CLOUDY    54  45  71 N13       30.14R
BIG TROUT LK   SUNNY     41  27  56 S12       30.11F
PICKLE LAKE    PTSUNNY   48  30  49 SE8       30.12F
DRYDEN         CLOUDY    43  37  81 S10G17    30.09F
KENORA         CLOUDY    43  41  93 SE10G17   30.06R
$$
                *** MANITOBA***

CITY           SKY/WX    TMP DP  RH WIND       PRES   REMARKS
BRANDON        PTSUNNY   55  48  76 SE12      29.83F
DAUPHIN        SUNNY     57  48  72 SE6       29.78F
ISLAND LAKE    CLOUDY    45  37  76 S9        29.94F
PILOT MOUND    NOT AVBL
THE PAS        CLOUDY    50  45  81 SE14G23   29.65F
THOMPSON       LGT RAIN  43  43 100 S9        29.71
WINNIPEG       PTSUNNY   54  46  76 SE14      29.95F
LYNN LAKE      CLOUDY    45  41  87 S14G23    29.53F
CHURCHILL      CLOUDY    39  30  70 S21G29    29.74F
GILLAM         LGT RAIN  37  34  87 S13       29.82F
$$
                ***SASKATCHEWAN***

CITY           SKY/WX    TMP DP  RH WIND       PRES   REMARKS
ESTEVAN        PTSUNNY   64  52  63 S14       29.71F
KINDERSLEY     CLOUDY    61  52  72 SW10      29.54R
LLOYDMINSTER   CLOUDY    50  48  93 NW3       29.53R
PRINCE ALBERT  CLOUDY    57  50  77 S9        29.53F
REGINA         PTSUNNY   59  50  72 S16G23    29.64F
YORKTON        SUNNY     55  46  71 S16G23    29.68
N. BATTLEFORD  SUNNY     59  52  77 VRB2      29.53F HAZE
LA RONGE       CLOUDY    48  45  87 S8        29.53
SASKATOON      PTSUNNY   61  50  67 S13       29.54F
SWIFT CURRENT  SUNNY     68  50  52 SW14      29.58F
$$
NOTE: THESE ARE AUTOMATED STATIONS WITH LIMITED QUALITY CONTROL
      "FAIR" INDICATES FEW OR NO CLOUDS BELOW 12,000 FEET WITH NO
      SIGNIFICANT WEATHER AND/OR OBSTRUCTIONS TO VISIBILITY.
      SKY/WX - SKY CONDITION AND SIGNIFICANT WEATHER.
      TMP - AIR TEMPERATURE.    DP   - DEWPOINT TEMPERATURE.
      RH  - RELATIVE HUMIDITY.  PRES - PRESSURE.
      HX  - HEAT INDEX.         WCI  - WIND CHILL INDEX.
$



USA.gov is the U.S. government's official web portal to all federal, state and local government web resources and services.